Date,TemperatureHighF,TemperatureAvgF,TemperatureLowF,DewpointHighF,DewpointAvgF,DewpointLowF,HumidityHigh,HumidityAvg,HumidityLow,PressureMaxIn,PressureMinIn,WindSpeedMaxMPH,WindSpeedAvgMPH,GustSpeedMaxMPH,PrecipitationSumIn
2012-11-14,60,51,36,-100,-100,-100,0,0,100,0.00,40.00,0,-999,0,0.00
2012-11-15,59,47,29,-100,-100,-100,0,0,100,0.00,40.00,0,-999,0,0.00
2012-11-16,58,38,23,-100,-100,-100,0,0,100,0.00,40.00,0,-999,0,0.00
2012-11-17,63,48,29,-100,-100,-100,0,0,100,0.00,40.00,0,-999,0,0.00
2012-11-18,64,50,32,-100,-100,-100,0,0,100,0.00,40.00,0,-999,0,0.00
2012-11-19,66,55,43,-100,-100,-100,0,0,100,0.00,40.00,0,-999,0,0.00
2012-11-20,63,46,35,-100,-100,-100,0,0,100,0.00,40.00,0,-999,0,0.00
2012-11-21,75,57,31,-100,-100,-100,0,0,100,0.00,40.00,0,-999,0,0.00
2012-11-25,35,32,28,-100,-100,-100,0,0,100,0.00,40.00,0,-999,0,0.00
2012-11-26,29,26,23,-100,-100,-100,0,0,100,0.00,40.00,0,-999,0,0.00
2012-11-27,35,24,3,-100,-100,-100,0,0,100,0.00,40.00,0,-999,0,0.00
2012-11-28,45,34,12,-100,-100,-100,0,0,100,0.00,40.00,0,-999,0,0.00
2012-11-29,54,40,23,-100,-100,-100,0,0,100,0.00,40.00,0,-999,0,0.00
2012-11-30,51,38,22,-100,-100,-100,0,0,100,0.00,40.00,0,-999,0,0.00
2012-12-1,58,51,29,-100,-100,-100,0,0,100,0.00,40.00,0,-999,0,0.00
2012-12-2,50,47,43,-100,-100,-100,0,0,100,0.00,40.00,0,-999,0,0.00
2012-12-3,72,57,41,-100,-100,-100,0,0,100,0.00,40.00,0,-999,0,0.00
2012-12-4,60,46,27,-100,-100,-100,0,0,100,0.00,40.00,0,-999,0,0.00
2012-12-5,40,34,20,-100,-100,-100,0,0,100,0.00,40.00,0,-999,0,0.00
2012-12-6,51,44,40,-100,-100,-100,0,0,100,0.00,40.00,0,-999,0,0.00
2012-12-7,41,36,31,-100,-100,-100,0,0,100,0.00,40.00,0,-999,0,0.00
2012-12-8,36,29,21,-100,-100,-100,0,0,100,0.00,40.00,0,-999,0,0.00
2012-12-9,31,28,14,-100,-100,-100,0,0,100,0.00,40.00,0,-999,0,0.00
2012-12-10,19,13,7,-100,-100,-100,0,0,100,0.00,40.00,0,-999,0,0.00
2012-12-11,31,17,7,-100,-100,-100,0,0,100,0.00,40.00,0,-999,0,0.00
2012-12-12,51,38,21,-100,-100,-100,0,0,100,0.00,40.00,0,-999,0,0.00
2012-12-13,50,40,28,-100,-100,-100,0,0,100,0.00,40.00,0,-999,0,0.00
2012-12-14,55,47,24,-100,-100,-100,0,0,100,0.00,40.00,0,-999,0,0.00
2012-12-15,51,44,36,-100,-100,-100,0,0,100,0.00,40.00,0,-999,0,0.00
2012-12-16,36,32,27,-100,-100,-100,0,0,100,0.00,40.00,0,-999,0,0.00
2012-12-17,32,26,20,-100,-100,-100,0,0,100,0.00,40.00,0,-999,0,0.00
2012-12-18,35,30,25,-100,-100,-100,0,0,100,0.00,40.00,0,-999,0,0.00
2012-12-19,32,27,25,-100,-100,-100,0,0,100,0.00,40.00,0,-999,0,0.00
2012-12-20,34,20,8,-100,-100,-100,0,0,100,0.00,40.00,0,-999,0,0.00
2012-12-21,19,8,3,-100,-100,-100,0,0,100,0.00,40.00,0,-999,0,0.00
2012-12-22,37,16,3,-100,-100,-100,0,0,100,0.00,40.00,0,-999,0,0.00
2012-12-23,25,14,9,-100,-100,-100,0,0,100,0.00,40.00,0,-999,0,0.00
2012-12-24,14,12,5,-100,-100,-100,0,0,100,0.00,40.00,0,-999,0,0.00
2012-12-25,11,4,-1,-100,-100,-100,0,0,100,0.00,40.00,0,-999,0,0.00
2012-12-26,12,7,3,-100,-100,-100,0,0,100,0.00,40.00,0,-999,0,0.00
2012-12-27,20,10,3,-100,-100,-100,0,0,100,0.00,40.00,0,-999,0,0.00
2012-12-28,27,22,14,-100,-100,-100,0,0,100,0.00,40.00,0,-999,0,0.00
2012-12-29,13,8,4,-100,-100,-100,0,0,100,0.00,40.00,0,-999,0,0.00
2012-12-30,33,17,4,-100,-100,-100,0,0,100,0.00,40.00,0,-999,0,0.00
2012-12-31,28,14,7,-100,-100,-100,0,0,100,0.00,40.00,0,-999,0,0.00
2013-1-1,11,5,1,-100,-100,-100,0,0,100,0.00,40.00,0,-999,0,0.00